Starlink 32305

operational
NORAD ID: 61523 Int'l Des: 2024-183 Owner: SPXS Country: US Constellation: starlink
LEOCIRCULAR

Über Starlink 32305

Beschreibung wird geladen...

Live-Position

3D-Globus wird geladen...

Nächste Überflüge

Höhenverlauf

Altitude vs Time

uPlot chart will show altitude changes over time

Zweizeiliger Elementsatz

1 61523U 24183Q 25305.62346020 .00000262 00000-0 20990-4 0 9997
2 61523 53.1617 17.3854 0001351 113.4131 246.7012 15.30194105 60045
Epoch: 1. Nov. 2025 • Age: 16 hours

Aktueller Status

Höhe 476.9 km
Geschwindigkeit 7.63 km/s
Subsatellitenpunkt 31.19°N, 102.87°W
Startdatum 15. Okt. 2024
Alter 1 years
Typ internet

Technische Details

Klassifizierung Payload
Masse 730.00 kg
Trockenmasse 700.00 kg
Gesamtmasse 730.00 kg
Länge 0.30 m
Durchmesser 4.10 m
Spannweite 29.00 m
Form Box + pan
Hersteller SPXS
Bus-Typ Starlink V2M
Phasenstatus In Orbit
Besitzer/Staat SPXS/US

Große Konstellationen

Loading constellations...